Погода в Косе

Россия / Пермский край     59°56′39″N   54°59′20″E
темп.,
°C
ветер,
м/с
пор.,
м/с
влажн.,
%
обл.,
%
осадки,
мм/ч
давл.,
гПа
погр.,
м
6 марта, сб
сб623:00−17з369594 0.0 1001116
02:00−19зюз369873 0.0 1003107
05:00−18з379764 0.1 1005222
08:00−18з3896100 0.3 1005266
11:00−16зсз369494 0.3 1006280
14:00−13з3587100 0.1 1007699
17:00−13з3587100 0.1 1008734
20:00−16з2396100 0.1 100851
7 марта, вс
вс723:00−17зюз229896 0.1 100931
02:00−19зюз229987 0.0 100921
05:00−20юз229988 0.1 100958
08:00−20юз229979 0.1 100924
11:00−16ююз239280 0.1 1009300
14:00−13юз2383100 0.1 1009710
17:00−13ю1285100 0.1 1008608
20:00−17ююв229598 0.0 100720
8 марта, пн
пн823:00−20ююв229752 0.0 100722
02:00−20юв2210085 0.0 100630
05:00−21вюв239992 0.1 100574
08:00−21вюв379897 0.0 1004166
11:00−17вюв379499 0.0 1002280
14:00−13в4792100 0.1 1000432
17:00−12вюв3692100 0.5 1000677
20:00−13вюв2597100 0.5 1000210
9 марта, вт
вт923:00−14в2597100 0.7 1000139
02:00−14всв259799 0.2 999147
05:00−15св359799 0.3 999164
08:00−16ссв489692 0.1 997260
11:00−14с489396 0.3 997382
14:00−13с5991100 0.2 1000527
17:00−14ссз5891100 0.4 1003603
20:00−18ссз4994100 0.2 1006485
10 марта, ср
ср1023:00−23ссз3996100 0.2 1010319
02:00−27ссз279757 0.0 1012142
05:00−30ссз259837 0.0 1013114
08:00−32ссз259839 0.0 1015114
11:00−27ссз359442 0.0 1015281
14:00−21ссз258837 0.0 1015422
17:00−18сз358638 0.0 1014519
20:00−22зсз23968 0.0 101520